Weather History for Amarillo, TX

Change the Weather History Date:

Monday, May 20, 2013

  Actual Average Record
Temperature  
Mean Temperature 71 °F 67 °F  
Max Temperature 87 °F 81 °F 100 °F (1925)
Min Temperature 55 °F 53 °F 40 °F (1943)
Degree Days  
Heating Degree Days 0 2  
Month to date heating degree days 90 68  
Since 1 July heating degree days 3732 4156  
Cooling Degree Days 6 4  
Month to date cooling degree days 89 49  
Year to date cooling degree days 134 70  
Growing Degree Days 21 (Base 50)    
Moisture  
Dew Point 28 °F    
Average Humidity 29    
Maximum Humidity 51    
Minimum Humidity 6    
Precipitation  
Precipitation 0.00 in 0.08 in 1.76 in (1949)
Month to date precipitation 0.89 1.23  
Year to date precipitation 4.38 5.30  
Snow  
Snow 0.00 in 0.00 in T in (2000)
Month to date snowfall T 0.2  
Since 1 July snowfall 29.7 17.8  
Snow Depth 0.00 in    
Sea Level Pressure  
Sea Level Pressure 29.66 in    
Wind  
Wind Speed 15 mph (NW)    
Max Wind Speed 31 mph    
Max Gust Speed 48 mph    
Visibility 10 miles    
Events      
T = Trace of Precipitation, MM = Missing Value Source: NWS Daily Summary

Daily Weather History Graph

Daily Weather History Graph

Search for Another Location

Airport:

Trip Planner

Search our weather history database for the weather conditions in past years. The results will help you decide how hot, cold, wet, or windy it might be!

Date:

Astronomy

May. 20, 2013 Rise Set
Actual Time 6:39 AM CDT 8:48 PM CDT
Civil Twilight 6:10 AM CDT 9:16 PM CDT
Nautical Twilight 5:35 AM CDT 9:51 PM CDT
Astronomical Twilight 4:58 AM CDT 10:29 PM CDT
Moon 4:07 PM CDT (5/20) 3:24 AM CDT (5/20)
Length of Visible Light 15h 06m
Length of Day
14h 09m
Waxing Gibbous, 75% of the Moon is Illuminated
May 20
Waxing Gibbous
May 24
Full
May 31
Last Quarter
Jun 8
New
Jun 16
First Quarter

Hourly Weather History & Observations

Time (CDT) Temp. Dew Point Humidity Pressure Visibility Wind Dir Wind Speed Gust Speed Precip Events Conditions
12:53 AM 72.0 °F 19.0 °F 13% 29.63 in 10.0 mi WNW 13.8 mph - N/A   Clear
1:53 AM 70.0 °F 19.9 °F 15% 29.64 in 10.0 mi NW 15.0 mph - N/A   Clear
2:53 AM 73.0 °F 28.0 °F 19% 29.60 in 10.0 mi WNW 9.2 mph - N/A   Partly Cloudy
3:53 AM 73.0 °F 28.9 °F 20% 29.58 in 10.0 mi WNW 13.8 mph 24.2 mph N/A   Partly Cloudy
4:53 AM 70.0 °F 28.9 °F 22% 29.60 in 10.0 mi WNW 12.7 mph - N/A   Clear
5:53 AM 63.0 °F 37.9 °F 40% 29.68 in 10.0 mi North 12.7 mph - N/A   Clear
6:53 AM 55.0 °F 37.9 °F 53% 29.70 in 10.0 mi NNE 6.9 mph - N/A   Clear
7:53 AM 61.0 °F 41.0 °F 48% 29.69 in 10.0 mi ENE 3.5 mph - N/A   Clear
8:53 AM 70.0 °F 37.0 °F 30% 29.69 in 10.0 mi SW 3.5 mph - N/A   Clear
9:53 AM 75.9 °F 37.0 °F 24% 29.69 in 10.0 mi SW 11.5 mph - N/A   Clear
10:53 AM 80.1 °F 28.0 °F 15% 29.68 in 10.0 mi WSW 20.7 mph 26.5 mph N/A   Clear
11:53 AM 82.0 °F 24.1 °F 12% 29.68 in 10.0 mi West 24.2 mph 32.2 mph N/A   Clear
12:53 PM 84.0 °F 21.0 °F 10% 29.65 in 8.0 mi West 20.7 mph 35.7 mph N/A   Clear
1:53 PM 84.9 °F 21.0 °F 10% 29.65 in 10.0 mi West 23.0 mph 38.0 mph N/A   Clear
2:53 PM 86.0 °F 16.0 °F 7% 29.63 in 10.0 mi SW 24.2 mph 27.6 mph N/A   Clear
3:53 PM 86.0 °F 15.1 °F 7% 29.62 in 10.0 mi SW 21.9 mph 32.2 mph N/A   Clear
4:53 PM 86.0 °F 15.1 °F 7% 29.61 in 10.0 mi WSW 13.8 mph 19.6 mph N/A   Clear
5:53 PM 86.0 °F 14.0 °F 7% 29.61 in 10.0 mi SW 10.4 mph 27.6 mph N/A   Clear
6:19 PM 86.0 °F 14.0 °F 7% 29.77 in 10.0 mi West 15.0 mph 20.7 mph N/A   Clear
6:53 PM 84.0 °F 23.0 °F 11% 29.63 in 10.0 mi North 23.0 mph 29.9 mph N/A   Clear
7:05 PM 80.6 °F 35.6 °F 20% 29.77 in 10.0 mi North 23.0 mph - N/A   Clear
7:53 PM 78.1 °F 36.0 °F 22% 29.66 in 10.0 mi North 20.7 mph - N/A   Clear
8:53 PM 71.1 °F 37.0 °F 29% 29.68 in 10.0 mi NNE 13.8 mph - N/A   Clear
9:53 PM 66.0 °F 37.9 °F 36% 29.70 in 10.0 mi NNE 10.4 mph - N/A   Clear
10:53 PM 63.0 °F 39.0 °F 41% 29.72 in 10.0 mi NNE 10.4 mph - N/A   Clear
11:53 PM 64.9 °F 39.9 °F 40% 29.75 in 10.0 mi NE 17.3 mph 27.6 mph N/A   Clear